ACA8265 CYLW-CYVR

Flight info

Callsign ACA8265
Flight time 0h 48m
Altitude 20000
Route MERYT DCT BOOTH CANUC6
Aircraft DH8D/M-SDE2E3FGRY/H

Departure

Time 2026-05-07 20:04
Airport Kelowna International Airport (CYLW)

Arrival

Time 2026-05-07 20:52
Airport Vancouver International Airport (CYVR)
Time Latitude Longitude Altitude Speed Heading
2026-05-07 19:25 49.95235 -119.38021 1402 ft 0 kts 289°
2026-05-07 19:55 49.95233 -119.38013 1449 ft 2 kts 280°
2026-05-07 19:55 49.95234 -119.37991 1449 ft 2 kts 251°
2026-05-07 19:56 49.95242 -119.37971 1449 ft 2 kts 225°
2026-05-07 19:56 49.95254 -119.37959 1449 ft 2 kts 198°
2026-05-07 19:56 49.95268 -119.37956 1450 ft 2 kts 173°
2026-05-07 19:56 49.95277 -119.37958 1449 ft 0 kts 174°
2026-05-07 19:59 49.95258 -119.37955 1450 ft 7 kts 175°
2026-05-07 19:59 49.95192 -119.37947 1450 ft 10 kts 176°
2026-05-07 20:00 49.95124 -119.37918 1450 ft 10 kts 170°
2026-05-07 20:00 49.95054 -119.37908 1450 ft 9 kts 175°
2026-05-07 20:00 49.94988 -119.37900 1450 ft 9 kts 175°
2026-05-07 20:00 49.94949 -119.37838 1450 ft 8 kts 156°
2026-05-07 20:01 49.94891 -119.37825 1450 ft 8 kts 175°
2026-05-07 20:01 49.94865 -119.37821 1451 ft 0 kts 175°
2026-05-07 20:01 49.94850 -119.37819 1451 ft 7 kts 174°
2026-05-07 20:01 49.94812 -119.37804 1451 ft 0 kts 152°
2026-05-07 20:02 49.94811 -119.37804 1451 ft 0 kts 152°
2026-05-07 20:02 49.94804 -119.37798 1451 ft 2 kts 147°
2026-05-07 20:02 49.94781 -119.37764 1451 ft 7 kts 130°
2026-05-07 20:03 49.94764 -119.37681 1451 ft 9 kts 45°
2026-05-07 20:03 49.94804 -119.37672 1451 ft 0 kts 354°
2026-05-07 20:03 49.94805 -119.37672 1451 ft 3 kts 354°
2026-05-07 20:03 49.95112 -119.37716 1451 ft 92 kts 355°
2026-05-07 20:04 49.96005 -119.37820 1493 ft 149 kts 358°
2026-05-07 20:04 49.97034 -119.37897 2090 ft 153 kts 359°
2026-05-07 20:04 49.98069 -119.37870 2810 ft 153 kts
2026-05-07 20:04 49.99223 -119.38028 3180 ft 178 kts 351°
2026-05-07 20:05 50.00500 -119.38356 3741 ft 188 kts 350°
2026-05-07 20:05 50.01736 -119.38770 4513 ft 187 kts 344°
2026-05-07 20:05 50.02991 -119.39389 5038 ft 194 kts 342°
2026-05-07 20:05 50.04243 -119.40077 5740 ft 192 kts 340°
2026-05-07 20:06 50.05500 -119.40776 6347 ft 193 kts 341°
2026-05-07 20:06 50.06749 -119.41465 6984 ft 193 kts 340°
2026-05-07 20:06 50.08015 -119.42165 7538 ft 196 kts 340°
2026-05-07 20:06 50.09293 -119.42876 8151 ft 195 kts 340°
2026-05-07 20:07 50.10580 -119.43592 8657 ft 198 kts 340°
2026-05-07 20:07 50.11881 -119.44317 9153 ft 200 kts 340°
2026-05-07 20:07 50.13192 -119.45049 9671 ft 201 kts 340°
2026-05-07 20:07 50.14502 -119.45771 10172 ft 203 kts 342°
2026-05-07 20:08 50.15900 -119.45809 10602 ft 208 kts 20°
2026-05-07 20:08 50.16998 -119.44354 10982 ft 216 kts 47°
2026-05-07 20:08 50.17960 -119.42543 11421 ft 218 kts 45°
2026-05-07 20:08 50.19000 -119.40806 11874 ft 218 kts 41°
2026-05-07 20:09 50.20085 -119.39143 12271 ft 220 kts 40°
2026-05-07 20:09 50.21205 -119.37536 12672 ft 222 kts 38°
2026-05-07 20:09 50.22378 -119.35934 13065 ft 223 kts 37°
2026-05-07 20:10 50.24771 -119.32821 13816 ft 226 kts 35°
2026-05-07 20:10 50.26034 -119.31445 14165 ft 221 kts 18°
2026-05-07 20:10 50.27502 -119.30950 14533 ft 215 kts
2026-05-07 20:10 50.28987 -119.30688 14902 ft 216 kts
2026-05-07 20:11 50.30495 -119.30428 15250 ft 217 kts
2026-05-07 20:11 50.31978 -119.30176 15618 ft 216 kts
2026-05-07 20:11 50.33475 -119.29923 15973 ft 216 kts
2026-05-07 20:11 50.34963 -119.29674 16333 ft 216 kts
2026-05-07 20:12 50.36458 -119.29424 16624 ft 218 kts
2026-05-07 20:12 50.37959 -119.29175 16955 ft 218 kts
2026-05-07 20:12 50.39469 -119.28924 17273 ft 218 kts
2026-05-07 20:12 50.40983 -119.28672 17582 ft 218 kts
2026-05-07 20:13 50.42474 -119.28426 17838 ft 219 kts
2026-05-07 20:13 50.43957 -119.28570 18080 ft 212 kts 335°
2026-05-07 20:13 50.45002 -119.30122 18261 ft 214 kts 296°
2026-05-07 20:13 50.45076 -119.32483 18443 ft 229 kts 261°
2026-05-07 20:14 50.44493 -119.34807 18711 ft 234 kts 255°
2026-05-07 20:14 50.43822 -119.37159 18931 ft 237 kts 254°
2026-05-07 20:14 50.43140 -119.39488 19235 ft 236 kts 254°
2026-05-07 20:14 50.42445 -119.41838 19495 ft 237 kts 255°
2026-05-07 20:15 50.41746 -119.44183 19747 ft 238 kts 254°
2026-05-07 20:15 50.41049 -119.46516 19957 ft 241 kts 254°
2026-05-07 20:15 50.40331 -119.48918 20026 ft 248 kts 254°
2026-05-07 20:15 50.39582 -119.51418 20054 ft 257 kts 253°
2026-05-07 20:16 50.38810 -119.53981 20068 ft 266 kts 253°
2026-05-07 20:16 50.37996 -119.56674 20072 ft 275 kts 253°
2026-05-07 20:16 50.37172 -119.59384 20071 ft 282 kts 253°
2026-05-07 20:16 50.36322 -119.62181 20067 ft 288 kts 252°
2026-05-07 20:17 50.35450 -119.65037 20074 ft 293 kts 251°
2026-05-07 20:17 50.34555 -119.67960 20076 ft 297 kts 251°
2026-05-07 20:17 50.33670 -119.70854 20070 ft 301 kts 251°
2026-05-07 20:17 50.32766 -119.73809 20083 ft 303 kts 251°
2026-05-07 20:18 50.31847 -119.76804 20083 ft 305 kts 251°
2026-05-07 20:18 50.30929 -119.79792 20084 ft 307 kts 251°
2026-05-07 20:18 50.29996 -119.82827 20082 ft 308 kts 251°
2026-05-07 20:18 50.29071 -119.85832 20081 ft 310 kts 251°
2026-05-07 20:19 50.28132 -119.88882 20075 ft 312 kts 251°
2026-05-07 20:19 50.27187 -119.91942 20075 ft 313 kts 251°
2026-05-07 20:19 50.26234 -119.95036 20074 ft 314 kts 251°
2026-05-07 20:19 50.25290 -119.98088 20073 ft 315 kts 251°
2026-05-07 20:20 50.24338 -120.01165 20070 ft 316 kts 251°
2026-05-07 20:20 50.23380 -120.04258 20083 ft 316 kts 251°
2026-05-07 20:20 50.22426 -120.07333 20082 ft 317 kts 251°
2026-05-07 20:20 50.21468 -120.10420 20082 ft 317 kts 251°
2026-05-07 20:21 50.20508 -120.13506 20086 ft 317 kts 251°
2026-05-07 20:21 50.19536 -120.16631 20079 ft 318 kts 251°
2026-05-07 20:21 50.18569 -120.19733 20088 ft 318 kts 251°
2026-05-07 20:21 50.17603 -120.22827 20091 ft 318 kts 251°
2026-05-07 20:22 50.16630 -120.25942 20085 ft 318 kts 250°
2026-05-07 20:22 50.15658 -120.29046 20082 ft 318 kts 251°
2026-05-07 20:22 50.14685 -120.32152 20080 ft 318 kts 251°
2026-05-07 20:22 50.13720 -120.35230 20081 ft 318 kts 251°
2026-05-07 20:23 50.12746 -120.38333 20081 ft 318 kts 251°
2026-05-07 20:23 50.11770 -120.41437 20080 ft 318 kts 251°
2026-05-07 20:23 50.10808 -120.44495 20074 ft 318 kts 250°
2026-05-07 20:23 50.09830 -120.47597 20079 ft 318 kts 250°
2026-05-07 20:24 50.08852 -120.50697 20072 ft 318 kts 250°
2026-05-07 20:24 50.07872 -120.53798 20071 ft 318 kts 250°
2026-05-07 20:24 50.06904 -120.56859 20076 ft 318 kts 250°
2026-05-07 20:24 50.05921 -120.59962 20074 ft 318 kts 250°
2026-05-07 20:25 50.04951 -120.63022 20075 ft 318 kts 250°
2026-05-07 20:25 50.03966 -120.66125 20076 ft 319 kts 250°
2026-05-07 20:25 50.02982 -120.69222 20071 ft 319 kts 250°
2026-05-07 20:25 50.02007 -120.72283 20070 ft 319 kts 250°
2026-05-07 20:26 50.01019 -120.75384 20064 ft 319 kts 249°
2026-05-07 20:26 50.00040 -120.78451 20062 ft 319 kts 249°
2026-05-07 20:26 49.99058 -120.81525 20062 ft 319 kts 249°
2026-05-07 20:26 49.98059 -120.84646 20061 ft 319 kts 249°
2026-05-07 20:27 49.97079 -120.87708 20058 ft 319 kts 249°
2026-05-07 20:27 49.96087 -120.90800 20056 ft 320 kts 249°
2026-05-07 20:27 49.95097 -120.93883 20055 ft 319 kts 249°
2026-05-07 20:27 49.94118 -120.96915 20054 ft 319 kts 249°
2026-05-07 20:28 49.92999 -120.99923 20052 ft 321 kts 244°
2026-05-07 20:28 49.91828 -121.02843 20061 ft 322 kts 244°
2026-05-07 20:28 49.90653 -121.05801 20067 ft 322 kts 244°
2026-05-07 20:28 49.89482 -121.08776 20068 ft 322 kts 244°
2026-05-07 20:29 49.88334 -121.11719 20076 ft 322 kts 245°
2026-05-07 20:29 49.87183 -121.14682 20082 ft 322 kts 245°
2026-05-07 20:29 49.86023 -121.17680 20079 ft 322 kts 245°
2026-05-07 20:29 49.84870 -121.20669 20075 ft 322 kts 245°
2026-05-07 20:30 49.83728 -121.23633 20077 ft 322 kts 245°
2026-05-07 20:30 49.82589 -121.26591 20074 ft 321 kts 245°
2026-05-07 20:30 49.81445 -121.29561 20073 ft 320 kts 245°
2026-05-07 20:30 49.80313 -121.32500 20074 ft 319 kts 245°
2026-05-07 20:31 49.79186 -121.35426 20077 ft 318 kts 245°
2026-05-07 20:31 49.78053 -121.38367 20072 ft 318 kts 245°
2026-05-07 20:31 49.76923 -121.41299 20070 ft 318 kts 245°
2026-05-07 20:31 49.75807 -121.44190 20074 ft 317 kts 245°
2026-05-07 20:32 49.74677 -121.47117 20079 ft 318 kts 245°
2026-05-07 20:32 49.73544 -121.50048 20080 ft 317 kts 245°
2026-05-07 20:32 49.72419 -121.52957 20088 ft 318 kts 245°
2026-05-07 20:32 49.71273 -121.55918 20082 ft 319 kts 244°
2026-05-07 20:33 49.70146 -121.58824 20084 ft 319 kts 244°
2026-05-07 20:33 49.69002 -121.61769 20084 ft 319 kts 244°
2026-05-07 20:33 49.67853 -121.64726 20086 ft 319 kts 244°
2026-05-07 20:33 49.66710 -121.67663 20084 ft 320 kts 244°
2026-05-07 20:34 49.65571 -121.70589 20085 ft 321 kts 244°
2026-05-07 20:34 49.64422 -121.73537 20090 ft 322 kts 244°
2026-05-07 20:34 49.63262 -121.76509 20091 ft 323 kts 244°
2026-05-07 20:34 49.62107 -121.79466 20086 ft 323 kts 244°
2026-05-07 20:35 49.60945 -121.82438 19912 ft 327 kts 243°
2026-05-07 20:35 49.59772 -121.85432 19535 ft 328 kts 243°
2026-05-07 20:35 49.58577 -121.88469 19081 ft 327 kts 243°
2026-05-07 20:35 49.57413 -121.91419 18615 ft 321 kts 243°
2026-05-07 20:36 49.56267 -121.94324 18167 ft 317 kts 243°
2026-05-07 20:36 49.55137 -121.97186 17735 ft 313 kts 242°
2026-05-07 20:36 49.54007 -122.00050 17293 ft 311 kts 242°
2026-05-07 20:36 49.52889 -122.02885 16874 ft 309 kts 242°
2026-05-07 20:37 49.51792 -122.05648 16452 ft 303 kts 242°
2026-05-07 20:37 49.50693 -122.08392 16019 ft 294 kts 241°
2026-05-07 20:37 49.49641 -122.10995 15590 ft 284 kts 241°
2026-05-07 20:37 49.48616 -122.13533 15196 ft 275 kts 241°
2026-05-07 20:38 49.47626 -122.15985 14835 ft 267 kts 240°
2026-05-07 20:38 49.46658 -122.18385 14448 ft 259 kts 241°
2026-05-07 20:38 49.45739 -122.20697 14096 ft 251 kts 241°
2026-05-07 20:38 49.44847 -122.22948 13707 ft 246 kts 241°
2026-05-07 20:39 49.43970 -122.25161 13328 ft 239 kts 240°
2026-05-07 20:39 49.43116 -122.27312 13006 ft 231 kts 240°
2026-05-07 20:39 49.42301 -122.29363 12688 ft 223 kts 240°
2026-05-07 20:39 49.41510 -122.31348 12343 ft 214 kts 240°
2026-05-07 20:40 49.40728 -122.33331 12038 ft 224 kts 240°
2026-05-07 20:40 49.39839 -122.35397 11723 ft 237 kts 233°
2026-05-07 20:40 49.38754 -122.37338 11394 ft 243 kts 230°
2026-05-07 20:40 49.37614 -122.39297 11048 ft 249 kts 229°
2026-05-07 20:41 49.36447 -122.41299 10698 ft 254 kts 229°
2026-05-07 20:41 49.35278 -122.43308 10343 ft 257 kts 229°
2026-05-07 20:41 49.34076 -122.45355 9962 ft 260 kts 228°
2026-05-07 20:41 49.32858 -122.47422 9577 ft 261 kts 228°
2026-05-07 20:42 49.31647 -122.49475 9210 ft 262 kts 228°
2026-05-07 20:42 49.30418 -122.51561 8832 ft 263 kts 228°
2026-05-07 20:42 49.29203 -122.53624 8462 ft 262 kts 228°
2026-05-07 20:42 49.27991 -122.55681 8105 ft 259 kts 228°
2026-05-07 20:43 49.26796 -122.57715 7748 ft 255 kts 228°
2026-05-07 20:43 49.25627 -122.59704 7368 ft 250 kts 228°
2026-05-07 20:43 49.24485 -122.61645 7017 ft 242 kts 228°
2026-05-07 20:43 49.23374 -122.63536 6666 ft 234 kts 228°
2026-05-07 20:44 49.22309 -122.65346 6341 ft 226 kts 228°
2026-05-07 20:44 49.21268 -122.67115 6035 ft 218 kts 228°
2026-05-07 20:44 49.20374 -122.68895 5743 ft 208 kts 237°
2026-05-07 20:44 49.19626 -122.70732 5442 ft 199 kts 238°
2026-05-07 20:45 49.18904 -122.72542 5176 ft 201 kts 239°
2026-05-07 20:45 49.18176 -122.74365 4896 ft 204 kts 239°
2026-05-07 20:45 49.17417 -122.76258 4607 ft 210 kts 239°
2026-05-07 20:45 49.16655 -122.78148 4325 ft 205 kts 238°
2026-05-07 20:46 49.16037 -122.80054 4026 ft 197 kts 259°
2026-05-07 20:46 49.16096 -122.82048 3833 ft 185 kts 281°
2026-05-07 20:46 49.16313 -122.83910 3640 ft 176 kts 281°
2026-05-07 20:46 49.16526 -122.85716 3434 ft 169 kts 281°
2026-05-07 20:47 49.16733 -122.87478 3219 ft 171 kts 282°
2026-05-07 20:47 49.16959 -122.89309 3035 ft 174 kts 282°
2026-05-07 20:47 49.17176 -122.91122 2872 ft 175 kts 281°
2026-05-07 20:47 49.17389 -122.92936 2901 ft 174 kts 281°
2026-05-07 20:48 49.17610 -122.94786 2839 ft 182 kts 281°
2026-05-07 20:48 49.17833 -122.96703 2589 ft 184 kts 280°
2026-05-07 20:48 49.18040 -122.98560 2275 ft 172 kts 280°
2026-05-07 20:48 49.18237 -123.00285 2037 ft 157 kts 281°
2026-05-07 20:49 49.18427 -123.01894 1836 ft 152 kts 282°
2026-05-07 20:49 49.18607 -123.03436 1640 ft 145 kts 281°
2026-05-07 20:49 49.18781 -123.04919 1441 ft 139 kts 281°
2026-05-07 20:49 49.18946 -123.06362 1293 ft 137 kts 281°
2026-05-07 20:50 49.19088 -123.07791 1100 ft 135 kts 279°
2026-05-07 20:50 49.19244 -123.09182 869 ft 133 kts 282°
2026-05-07 20:50 49.19421 -123.10571 669 ft 131 kts 282°
2026-05-07 20:50 49.19586 -123.11903 539 ft 128 kts 281°
2026-05-07 20:51 49.19742 -123.13226 415 ft 127 kts 280°
2026-05-07 20:51 49.19887 -123.14540 262 ft 127 kts 280°
2026-05-07 20:51 49.20040 -123.15889 84 ft 127 kts 280°
2026-05-07 20:51 49.20183 -123.17168 11 ft 113 kts 281°
2026-05-07 20:52 49.20279 -123.17990 10 ft 52 kts 280°
2026-05-07 20:52 49.20305 -123.18411 10 ft 31 kts 262°
2026-05-07 20:52 49.20256 -123.18665 10 ft 16 kts 250°
2026-05-07 20:52 49.20236 -123.18747 10 ft 0 kts 250°
2026-05-07 20:54 49.20224 -123.18797 10 ft 11 kts 250°
2026-05-07 20:55 49.20179 -123.18865 10 ft 9 kts 162°
2026-05-07 20:55 49.20147 -123.18785 10 ft 9 kts 139°
2026-05-07 20:55 49.20059 -123.18784 10 ft 18 kts 190°
2026-05-07 20:55 49.19906 -123.18826 10 ft 23 kts 190°
2026-05-07 20:56 49.19788 -123.18848 10 ft 12 kts 161°
2026-05-07 20:56 49.19755 -123.18742 10 ft 11 kts 99°
2026-05-07 20:56 49.19707 -123.18671 10 ft 11 kts 183°
2026-05-07 20:56 49.19614 -123.18694 10 ft 15 kts 189°
2026-05-07 20:57 49.19497 -123.18725 10 ft 16 kts 190°
2026-05-07 20:57 49.19408 -123.18690 10 ft 13 kts 106°
2026-05-07 20:57 49.19369 -123.18575 10 ft 12 kts 170°
2026-05-07 20:57 49.19291 -123.18604 10 ft 10 kts 189°
2026-05-07 20:58 49.19219 -123.18597 10 ft 11 kts 149°
2026-05-07 20:58 49.19149 -123.18514 10 ft 14 kts 142°
2026-05-07 20:58 49.19106 -123.18393 10 ft 13 kts 70°
2026-05-07 20:58 49.19122 -123.18261 10 ft 12 kts 96°
2026-05-07 20:59 49.19108 -123.18132 10 ft 11 kts 99°
2026-05-07 20:59 49.19094 -123.18049 10 ft 2 kts 69°
2026-05-07 20:59 49.19118 -123.18016 10 ft 5 kts 34°
2026-05-07 20:59 49.19148 -123.17986 10 ft 2 kts 34°
2026-05-07 21:00 49.19150 -123.17983 10 ft 0 kts 34°